Regional Weather Roundup
Issued by NWS

Home | Current Version | Previous Version | Graphics & Text | Print | Product List | Glossary On
Versions: 1 2 3 4 5 6 7 8 9 10 11 12 13 14 15 16 17 18 19 20 21 22 23 24 25 26 27 28
000
ASUS45 KCYS 251410
RWRWY

WYOMING REGIONAL WEATHER ROUNDUP
NATIONAL WEATHER SERVICE CHEYENNE WY
800 AM MDT TUE JUL 25 2017

NOTE:  "FAIR" INDICATES FEW OR NO CLOUDS BELOW 12,000 FEET
WITH NO SIGNIFICANT WEATHER AND/OR OBSTRUCTIONS TO VISIBILITY.

WYZ001-251500-
YELLOWSTONE NATIONAL PARK

CITY           SKY/WX    TMP DP  RH WIND       PRES   REMARKS
LK YELLOWSTONE   N/A     49  47  93 CALM      30.33R
W YELLOWSTONE  NOT AVBL

$$
WYZ002>013-054>058-071-098>099-251500-
NORTHERN WYOMING

CITY           SKY/WX    TMP DP  RH WIND       PRES   REMARKS
JACKSON        PTSUNNY   54  45  71 CALM      30.23R
CODY           FAIR      65  47  52 NE10      30.16R
GREYBULL       FAIR      74  32  21 NW16      30.03R
WORLAND        FAIR      68  46  45 SW8       30.04R
SHERIDAN       FAIR      70  47  43 W20G29    30.05R
BUFFALO        FAIR      75  47  36 NW5       30.11R
GILLETTE       FAIR      75  51  43 NW6       30.03R
HULETT         FAIR      77  54  44 E9        30.03R
NEWCASTLE      FAIR      77  43  29 CALM      29.98S

$$
WYZ014>020-022>026-101>103-251500-
CENTRAL WYOMING

CITY           SKY/WX    TMP DP  RH WIND       PRES   REMARKS
BIG PINEY      CLOUDY    61  46  57 VRB3      30.25R
PINEDALE       FAIR      61  43  51 MISG      30.25F
DUBOIS         PTSUNNY   61  34  36 CALM      30.26R
LANDER         FAIR      67  42  40 NW10      30.10S HAZE
RIVERTON       FAIR      71  40  32 NW7       30.12F
CASPER         FAIR      68  44  42 W6        30.11R
DOUGLAS        FAIR      69  48  47 W3        30.08R

$$
WYZ021-027>030-104>119-251500-
SOUTHERN WYOMING

CITY           SKY/WX    TMP DP  RH WIND       PRES   REMARKS
EVANSTON       LGT RAIN  57  56  96 SW10      30.28R
KEMMERER         N/A     63  46  55 SW7       30.27R
FORT BRIDGER   PTSUNNY   66  50  55 S6        30.29S
ROCK SPRINGS   LGT RAIN  64  53  67 S13       30.24R
RAWLINS        FAIR      69  50  50 SW17G28   30.23S
SARATOGA       FAIR      68  46  45 SW3       30.27R
LARAMIE        FAIR      65  44  46 E3        30.24R
CHEYENNE       FAIR      76  45  33 NW8       30.13R
TORRINGTON     FAIR      70  57  63 N5        29.97R
PINE BLUFFS    FAIR      68  52  56 W5        30.07S

$$




USA.gov is the U.S. government's official web portal to all federal, state and local government web resources and services.